Station Historical Data
Daily Summary for July 20, 2017 Units:  Metric    English   Both
« Previous Day
Next Day »
Daily Weekly Monthly Yearly Custom
  High: Low: Average:
Temperature: 25.9 °C 17.4 °C 21.8 °C
Dew Point: 21 °C 15.7 °C 19 °C
Humidity: 93% 67% 84%
Wind Speed: 19.3km/h 0km/h 2.9km/h
Wind Gust: 29km/h - -
Wind- - SSW
Pressure: 1015.8 hPa 1011.4 hPa -
Precipitation: 0 mm    
Historical Graphs
 
 
Tabular Data for July 20, 2017
Time Temperature Dew Point Pressure Wind Wind Speed Wind Gust Humidity Rainfall Rate (Hourly)
00:04 22.5 °C 20.4 °C 1015.5 hPa Calm     88% 0 mm
00:09 22.4 °C 20.3 °C 1015.8 hPa Calm     88% 0 mm
00:14 22.3 °C 20.2 °C 1015.8 hPa Calm     88% 0 mm
00:19 22.3 °C 20.4 °C 1015.8 hPa Calm     89% 0 mm
00:24 22.3 °C 20.4 °C 1015.5 hPa Calm     89% 0 mm
00:29 22.3 °C 20.4 °C 1015.5 hPa Calm     89% 0 mm
00:34 22.2 °C 20.3 °C 1015.5 hPa Calm     89% 0 mm
00:39 22.2 °C 20.3 °C 1015.5 hPa Calm     89% 0 mm
00:44 22.2 °C 20.3 °C 1015.8 hPa Calm     89% 0 mm
00:49 22.2 °C 20.4 °C 1015.8 hPa Calm     90% 0 mm
00:54 22.2 °C 20.3 °C 1015.8 hPa Calm     89% 0 mm
00:59 22.1 °C 20.2 °C 1015.8 hPa Calm     89% 0 mm
01:04 22 °C 20.1 °C 1015.8 hPa Calm     89% 0 mm
01:09 21.9 °C 20.1 °C 1015.8 hPa Calm     89% 0 mm
01:14 21.8 °C 19.9 °C 1015.8 hPa Calm     89% 0 mm
01:19 21.8 °C 19.9 °C 1015.8 hPa Calm     89% 0 mm
01:24 21.7 °C 19.9 °C 1015.5 hPa Calm     90% 0 mm
01:29 21.5 °C 19.8 °C 1015.5 hPa Calm     90% 0 mm
01:34 21.4 °C 19.7 °C 1015.5 hPa Calm     90% 0 mm
01:39 21.3 °C 19.6 °C 1015.1 hPa Calm     90% 0 mm
01:44 21.3 °C 19.6 °C 1015.1 hPa Calm     90% 0 mm
01:49 21.2 °C 19.4 °C 1015.1 hPa Calm     90% 0 mm
01:54 21.1 °C 19.3 °C 1015.1 hPa Calm     90% 0 mm
01:59 21 °C 19.3 °C 1015.1 hPa Calm     90% 0 mm
02:04 20.9 °C 19.2 °C 1015.1 hPa Calm     90% 0 mm
02:09 21 °C 19.3 °C 1015.1 hPa Calm     90% 0 mm
02:14 21 °C 19.3 °C 1015.1 hPa Calm     90% 0 mm
02:19 21 °C 19.1 °C 1015.1 hPa Calm     89% 0 mm
02:24 21.2 °C 19.2 °C 1015.1 hPa Calm     88% 0 mm
02:29 21.3 °C 18.9 °C 1015.1 hPa Calm     86% 0 mm
02:34 21.3 °C 19 °C 1015.1 hPa Calm     87% 0 mm
02:39 21.3 °C 18.9 °C 1015.1 hPa Calm     86% 0 mm
02:44 21.2 °C 18.8 °C 1015.5 hPa Calm     86% 0 mm
02:49 21.1 °C 18.9 °C 1015.5 hPa Calm     87% 0 mm
02:54 21.2 °C 18.7 °C 1015.5 hPa Calm     86% 0 mm
02:59 21.1 °C 18.8 °C 1015.5 hPa Calm   6.4 km/h 87% 0 mm
03:04 21.1 °C 18.9 °C 1015.5 hPa WNW 1.6 km/h 6.4 km/h 87% 0 mm
03:09 21.1 °C 18.7 °C 1015.1 hPa NW 1.6 km/h 6.4 km/h 86% 0 mm
03:14 21.1 °C 18.6 °C 1015.5 hPa Calm     86% 0 mm
03:19 21 °C 18.6 °C 1015.1 hPa Calm   3.2 km/h 86% 0 mm
03:24 20.9 °C 18.3 °C 1015.1 hPa Calm     85% 0 mm
03:29 20.8 °C 18.2 °C 1014.8 hPa Calm     85% 0 mm
03:34 20.6 °C 18 °C 1015.1 hPa Calm     85% 0 mm
03:39 20.4 °C 18 °C 1015.1 hPa Calm     86% 0 mm
03:44 20.3 °C 17.9 °C 1015.1 hPa Calm     86% 0 mm
03:49 20.3 °C 17.9 °C 1015.1 hPa Calm     86% 0 mm
03:54 20.4 °C 17.8 °C 1015.1 hPa Calm     85% 0 mm
03:59 20.2 °C 17.8 °C 1014.8 hPa Calm     86% 0 mm
04:04 20.1 °C 17.7 °C 1014.8 hPa Calm     86% 0 mm
04:09 20.1 °C 17.7 °C 1014.8 hPa Calm     86% 0 mm
04:19 20.2 °C 17.7 °C 1014.4 hPa Calm     86% 0 mm
04:24 20 °C 17.6 °C 1014.4 hPa Calm     86% 0 mm
04:29 19.8 °C 17.4 °C 1014.8 hPa Calm     86% 0 mm
04:34 19.8 °C 17.6 °C 1014.8 hPa Calm     87% 0 mm
04:39 19.6 °C 17.3 °C 1014.8 hPa Calm     87% 0 mm
04:44 19.4 °C 17.3 °C 1014.8 hPa Calm     88% 0 mm
04:49 19.4 °C 17.3 °C 1014.8 hPa Calm     88% 0 mm
04:54 19.3 °C 17.3 °C 1014.8 hPa Calm     88% 0 mm
04:59 19.4 °C 17.3 °C 1015.1 hPa Calm     88% 0 mm
05:04 19.5 °C 17.4 °C 1015.1 hPa Calm     88% 0 mm
05:09 19.5 °C 17.4 °C 1015.1 hPa Calm     88% 0 mm
05:14 19.5 °C 17.4 °C 1015.1 hPa Calm     88% 0 mm
05:19 19.4 °C 17.3 °C 1015.1 hPa Calm     88% 0 mm
05:24 19.3 °C 17.3 °C 1015.1 hPa Calm     88% 0 mm
05:29 19.3 °C 17.2 °C 1015.1 hPa Calm     88% 0 mm
05:34 19.2 °C 17.3 °C 1015.1 hPa Calm     89% 0 mm
05:39 19.2 °C 17.3 °C 1015.1 hPa Calm     89% 0 mm
05:44 19.3 °C 17.4 °C 1015.1 hPa Calm     89% 0 mm
05:49 19.4 °C 17.6 °C 1014.8 hPa Calm     89% 0 mm
05:54 19.4 °C 17.6 °C 1014.8 hPa Calm     89% 0 mm
05:59 19.2 °C 17.4 °C 1014.8 hPa Calm     89% 0 mm
06:04 19.1 °C 17.3 °C 1014.8 hPa Calm     89% 0 mm
06:09 19.2 °C 17.6 °C 1014.8 hPa Calm     90% 0 mm
06:14 19.2 °C 17.3 °C 1014.8 hPa Calm     89% 0 mm
06:19 19.2 °C 17.6 °C 1014.4 hPa Calm     90% 0 mm
06:24 19.3 °C 17.7 °C 1014.4 hPa Calm     90% 0 mm
06:29 19.4 °C 17.9 °C 1014.4 hPa Calm     91% 0 mm
06:34 19.4 °C 17.8 °C 1014.4 hPa Calm     90% 0 mm
06:39 19.4 °C 17.7 °C 1014.8 hPa Calm     90% 0 mm
06:44 19.3 °C 17.7 °C 1014.8 hPa Calm     90% 0 mm
06:49 19.3 °C 17.8 °C 1014.8 hPa Calm     91% 0 mm
06:54 19.4 °C 17.9 °C 1014.8 hPa Calm     91% 0 mm
06:59 19.7 °C 18.2 °C 1015.1 hPa Calm     91% 0 mm
07:04 19.9 °C 18.4 °C 1015.1 hPa Calm     91% 0 mm
07:09 20.2 °C 18.6 °C 1015.1 hPa Calm     90% 0 mm
07:14 20.6 °C 18.8 °C 1015.1 hPa Calm     90% 0 mm
07:19 20.8 °C 18.9 °C 1015.1 hPa Calm     89% 0 mm
07:24 21 °C 18.9 °C 1015.1 hPa Calm     88% 0 mm
07:29 21.2 °C 18.9 °C 1015.5 hPa WSW 1.6 km/h 4.8 km/h 87% 0 mm
07:34 21.3 °C 19 °C 1015.5 hPa WSW 3.2 km/h 6.4 km/h 87% 0 mm
07:39 21.3 °C 19.1 °C 1015.1 hPa West 1.6 km/h 6.4 km/h 87% 0 mm
07:44 21.5 °C 19.1 °C 1015.1 hPa SW 4.8 km/h 6.4 km/h 86% 0 mm
07:49 21.7 °C 19.2 °C 1015.1 hPa WSW 1.6 km/h 6.4 km/h 86% 0 mm
07:54 21.8 °C 19.3 °C 1015.1 hPa Calm   4.8 km/h 86% 0 mm
07:59 22.1 °C 19.4 °C 1015.1 hPa Calm     85% 0 mm
08:04 22.5 °C 19.7 °C 1015.1 hPa SSW 6.4 km/h 11.3 km/h 84% 0 mm
08:09 22.6 °C 19.6 °C 1015.5 hPa SW 3.2 km/h 9.7 km/h 83% 0 mm
08:14 22.8 °C 19.7 °C 1015.5 hPa WSW 3.2 km/h 8 km/h 83% 0 mm
08:19 22.9 °C 19.7 °C 1015.5 hPa WSW 3.2 km/h 8 km/h 82% 0 mm
08:24 22.9 °C 19.7 °C 1015.1 hPa SW 3.2 km/h 9.7 km/h 82% 0 mm
08:29 23.1 °C 19.6 °C 1015.1 hPa SW 3.2 km/h 9.7 km/h 81% 0 mm
08:34 23.2 °C 19.7 °C 1015.1 hPa SW 3.2 km/h 9.7 km/h 81% 0 mm
08:39 23.5 °C 19.7 °C 1014.8 hPa SW 3.2 km/h 9.7 km/h 79% 0 mm
08:44 23.5 °C 19.7 °C 1014.8 hPa SW 6.4 km/h 8 km/h 79% 0 mm
08:49 23.6 °C 19.6 °C 1014.8 hPa SW 4.8 km/h 9.7 km/h 78% 0 mm
08:54 23.8 °C 19.5 °C 1014.4 hPa Calm   6.4 km/h 77% 0 mm
08:59 24.3 °C 19.8 °C 1014.4 hPa SSW 6.4 km/h 9.7 km/h 76% 0 mm
09:04 24.6 °C 19.6 °C 1014.4 hPa SSE 3.2 km/h 11.3 km/h 74% 0 mm
09:09 24.5 °C 19.1 °C 1014.4 hPa South 4.8 km/h 14.5 km/h 72% 0 mm
09:14 24.3 °C 19.2 °C 1014.4 hPa SSW 6.4 km/h 14.5 km/h 73% 0 mm
09:19 24.3 °C 19.2 °C 1014.4 hPa SW 4.8 km/h 11.3 km/h 73% 0 mm
09:24 24.3 °C 19.1 °C 1014.4 hPa SW 3.2 km/h 11.3 km/h 73% 0 mm
09:29 24.2 °C 19.1 °C 1014.1 hPa SSE 6.4 km/h 6.4 km/h 73% 0 mm
09:34 24.2 °C 19.3 °C 1014.1 hPa SSW 1.6 km/h 8 km/h 74% 0 mm
09:39 24.4 °C 19.4 °C 1013.8 hPa SSW 1.6 km/h 8 km/h 74% 0 mm
09:44 24.6 °C 19.4 °C 1013.8 hPa SSW 3.2 km/h 8 km/h 73% 0 mm
09:49 24.7 °C 19.5 °C 1014.1 hPa SSW 3.2 km/h 6.4 km/h 73% 0 mm
09:54 24.8 °C 19.6 °C 1014.1 hPa SW 3.2 km/h 8 km/h 73% 0 mm
09:59 24.8 °C 19.2 °C 1014.1 hPa SW 3.2 km/h 9.7 km/h 71% 0 mm
10:04 24.9 °C 19.5 °C 1013.8 hPa SW 4.8 km/h 9.7 km/h 72% 0 mm
10:09 25.3 °C 19.9 °C 1014.1 hPa WSW 3.2 km/h 8 km/h 72% 0 mm
10:14 25.5 °C 19.6 °C 1013.8 hPa SSW 4.8 km/h 11.3 km/h 70% 0 mm
10:19 25.7 °C 19.6 °C 1013.8 hPa SSW 4.8 km/h 11.3 km/h 69% 0 mm
10:24 25.9 °C 20 °C 1013.4 hPa South 4.8 km/h 9.7 km/h 70% 0 mm
10:29 25.9 °C 19.8 °C 1013.4 hPa SSE 1.6 km/h 9.7 km/h 69% 0 mm
10:34 25.6 °C 19.7 °C 1013.4 hPa SW 1.6 km/h 9.7 km/h 70% 0 mm
10:39 25.7 °C 19.8 °C 1013.4 hPa Calm   8 km/h 70% 0 mm
10:44 25.7 °C 19.8 °C 1013.4 hPa SW 3.2 km/h 6.4 km/h 70% 0 mm
10:49 25.7 °C 19.6 °C 1013.1 hPa SSW 3.2 km/h 8 km/h 69% 0 mm
10:54 25.6 °C 19.7 °C 1013.1 hPa South 3.2 km/h 8 km/h 70% 0 mm
10:59 25.4 °C 18.9 °C 1013.1 hPa South 3.2 km/h 11.3 km/h 67% 0 mm
11:04 25.4 °C 19.3 °C 1013.1 hPa SSW 3.2 km/h 11.3 km/h 69% 0 mm
11:09 25.2 °C 18.9 °C 1013.1 hPa Calm   11.3 km/h 68% 0 mm
11:14 25.2 °C 19.1 °C 1012.8 hPa SSW 6.4 km/h 8 km/h 69% 0 mm
11:19 25.3 °C 19.2 °C 1013.1 hPa SSW 3.2 km/h 8 km/h 69% 0 mm
11:24 25.3 °C 19.2 °C 1013.1 hPa Calm   6.4 km/h 69% 0 mm
11:29 25.2 °C 19.3 °C 1013.1 hPa SW 4.8 km/h 4.8 km/h 70% 0 mm
11:34 25.1 °C 19.3 °C 1012.8 hPa SSW 8 km/h 8 km/h 70% 0 mm
11:39 25.1 °C 19.5 °C 1012.8 hPa SSW 1.6 km/h 8 km/h 71% 0 mm
11:44 24.8 °C 19.9 °C 1012.8 hPa SSW 1.6 km/h 6.4 km/h 74% 0 mm
11:49 24.7 °C 20.2 °C 1013.1 hPa South 1.6 km/h 6.4 km/h 76% 0 mm
11:54 24.4 °C 20.3 °C 1013.1 hPa South 1.6 km/h 3.2 km/h 78% 0 mm
11:59 24.2 °C 20.3 °C 1012.8 hPa Calm   1.6 km/h 79% 0.51 mm
12:04 23.8 °C 20.5 °C 1013.1 hPa Calm   4.8 km/h 82% 1.02 mm
12:09 23.4 °C 20.6 °C 1013.1 hPa SSW 1.6 km/h 4.8 km/h 84% 3.05 mm
12:14 23 °C 20.6 °C 1013.1 hPa Calm   4.8 km/h 86% 4.83 mm
12:19 22.6 °C 20.3 °C 1014.1 hPa NNW 3.2 km/h 9.7 km/h 87% 8.38 mm
12:24 22.3 °C 20.2 °C 1013.8 hPa NNW 6.4 km/h 16.1 km/h 88% 14.73 mm
12:29 21.7 °C 19.6 °C 1012.4 hPa NE 4.8 km/h 16.1 km/h 88% 24.38 mm
12:34 21.1 °C 19.2 °C 1014.1 hPa WNW 8 km/h 12.9 km/h 89% 25.15 mm
12:39 20.8 °C 19.1 °C 1013.4 hPa Calm   8 km/h 90% 28.7 mm
12:44 20.9 °C 19.2 °C 1013.4 hPa Calm     90% 29.46 mm
12:49 21 °C 19.5 °C 1013.4 hPa NNE 4.8 km/h 6.4 km/h 91% 29.72 mm
12:54 21.1 °C 19.6 °C 1013.8 hPa NNE 3.2 km/h 8 km/h 91% 29.72 mm
12:59 20.5 °C 18.6 °C 1013.8 hPa North 6.4 km/h 27.4 km/h 89% 29.21 mm
13:04 19.7 °C 18 °C 1014.1 hPa North 8 km/h 27.4 km/h 90% 29.97 mm
13:09 19.2 °C 17.6 °C 1014.1 hPa North 8 km/h 27.4 km/h 90% 28.7 mm
13:14 19.1 °C 17.6 °C 1014.8 hPa North 9.7 km/h 27.4 km/h 91% 27.43 mm
13:19 18.6 °C 16.9 °C 1014.4 hPa NW 6.4 km/h 14.5 km/h 90% 24.13 mm
13:24 18.4 °C 16.8 °C 1014.8 hPa NNE 8 km/h 20.9 km/h 90% 18.03 mm
13:29 18.1 °C 16.4 °C 1014.4 hPa NNE 6.4 km/h 20.9 km/h 90% 8.38 mm
13:34 17.7 °C 16.1 °C 1014.8 hPa NE 3.2 km/h 17.7 km/h 90% 7.62 mm
13:39 17.6 °C 15.9 °C 1014.4 hPa NNE 4.8 km/h 14.5 km/h 90% 4.06 mm
13:44 17.4 °C 15.9 °C 1014.4 hPa ENE 4.8 km/h 14.5 km/h 91% 3.3 mm
13:49 17.5 °C 15.8 °C 1014.4 hPa ENE 4.8 km/h 19.3 km/h 90% 3.05 mm
13:54 17.4 °C 15.8 °C 1014.1 hPa NE 9.7 km/h 22.5 km/h 90% 3.05 mm
13:59 17.4 °C 15.8 °C 1013.8 hPa NE 6.4 km/h 27.4 km/h 90% 3.05 mm
14:04 17.6 °C 15.9 °C 1013.8 hPa NE 17.7 km/h 20.9 km/h 90% 1.78 mm
14:09 17.6 °C 15.8 °C 1013.8 hPa ENE 19.3 km/h 24.1 km/h 89% 1.02 mm
14:14 17.7 °C 15.9 °C 1013.8 hPa NNE 16.1 km/h 29 km/h 89% 0.51 mm
14:19 17.8 °C 15.8 °C 1013.4 hPa ENE 11.3 km/h 20.9 km/h 88% 0.25 mm
14:24 17.9 °C 15.9 °C 1013.4 hPa ENE 11.3 km/h 24.1 km/h 88% 0 mm
14:29 18.2 °C 15.7 °C 1013.8 hPa ENE 12.9 km/h 24.1 km/h 85% 0 mm
14:34 18.7 °C 16.1 °C 1013.8 hPa ENE 12.9 km/h 24.1 km/h 85% 0 mm
14:39 18.7 °C 15.9 °C 1013.8 hPa East 8 km/h 19.3 km/h 84% 0 mm
14:44 18.7 °C 15.9 °C 1013.4 hPa East 8 km/h 17.7 km/h 84% 0 mm
14:49 18.6 °C 15.7 °C 1013.4 hPa ENE 8 km/h 16.1 km/h 83% 0 mm
14:54 18.7 °C 15.9 °C 1013.4 hPa ENE 6.4 km/h 16.1 km/h 84% 0 mm
14:59 18.7 °C 15.9 °C 1013.4 hPa East 3.2 km/h 11.3 km/h 84% 0 mm
15:04 18.9 °C 16.1 °C 1013.4 hPa ENE 6.4 km/h 14.5 km/h 84% 0 mm
15:09 18.8 °C 16.1 °C 1013.4 hPa East 1.6 km/h 14.5 km/h 84% 0 mm
15:14 18.8 °C 16.1 °C 1013.1 hPa ESE 3.2 km/h 12.9 km/h 84% 0 mm
15:19 18.8 °C 16 °C 1013.1 hPa ESE 3.2 km/h 14.5 km/h 84% 0 mm
15:24 19 °C 16.4 °C 1012.8 hPa ESE 4.8 km/h 14.5 km/h 85% 0 mm
15:29 19.4 °C 16.7 °C 1012.8 hPa ESE 4.8 km/h 17.7 km/h 84% 0 mm
15:34 19.4 °C 16.4 °C 1012.8 hPa ESE 6.4 km/h 17.7 km/h 83% 0 mm
15:39 19.7 °C 16.9 °C 1012.8 hPa ESE 4.8 km/h 14.5 km/h 84% 0 mm
15:44 19.8 °C 17.1 °C 1012.8 hPa SSE 3.2 km/h 11.3 km/h 84% 0 mm
15:49 19.9 °C 16.9 °C 1012.8 hPa SE 9.7 km/h 14.5 km/h 83% 0 mm
15:54 20.2 °C 17.2 °C 1012.8 hPa SE 4.8 km/h 14.5 km/h 83% 0 mm
15:59 20.3 °C 17.3 °C 1012.8 hPa SSE 6.4 km/h 11.3 km/h 83% 0 mm
16:04 20.2 °C 17.2 °C 1012.8 hPa SSE 6.4 km/h 11.3 km/h 83% 0 mm
16:09 20.2 °C 17.4 °C 1012.8 hPa SE 4.8 km/h 11.3 km/h 84% 0 mm
16:14 20.3 °C 17.3 °C 1012.4 hPa ESE 6.4 km/h 12.9 km/h 83% 0 mm
16:19 20.3 °C 17.3 °C 1012.8 hPa South 3.2 km/h 12.9 km/h 83% 0 mm
16:24 20.5 °C 17.5 °C 1012.4 hPa SSE 3.2 km/h 12.9 km/h 83% 0 mm
16:29 20.8 °C 17.8 °C 1012.4 hPa SSE 4.8 km/h 11.3 km/h 83% 0 mm
16:34 20.9 °C 17.9 °C 1012.4 hPa SSE 4.8 km/h 11.3 km/h 83% 0 mm
16:39 21.4 °C 18.2 °C 1012.4 hPa South 6.4 km/h 9.7 km/h 82% 0 mm
16:44 22 °C 18.6 °C 1012.1 hPa SSE 8 km/h 9.7 km/h 81% 0 mm
16:49 22.1 °C 18.7 °C 1012.1 hPa South 3.2 km/h 9.7 km/h 81% 0 mm
16:54 22.3 °C 18.8 °C 1012.1 hPa SSE 4.8 km/h 9.7 km/h 81% 0 mm
16:59 22.6 °C 18.9 °C 1012.1 hPa SSE 3.2 km/h 9.7 km/h 80% 0 mm
17:04 22.9 °C 19.3 °C 1012.1 hPa South 3.2 km/h 8 km/h 80% 0 mm
17:09 22.9 °C 19.3 °C 1012.1 hPa SSW 3.2 km/h 6.4 km/h 80% 0 mm
17:14 22.9 °C 19.1 °C 1012.1 hPa Calm   8 km/h 79% 0 mm
17:19 23.2 °C 19.5 °C 1012.1 hPa SSW 6.4 km/h 8 km/h 80% 0 mm
17:24 23.4 °C 19.6 °C 1012.1 hPa SSW 3.2 km/h 8 km/h 79% 0 mm
17:29 23.4 °C 19.6 °C 1012.1 hPa SSW 4.8 km/h 11.3 km/h 79% 0 mm
17:34 23.5 °C 19.8 °C 1011.7 hPa SW 6.4 km/h 8 km/h 80% 0 mm
17:39 23.6 °C 19.9 °C 1011.7 hPa SSE 4.8 km/h 11.3 km/h 80% 0 mm
17:44 23.7 °C 19.8 °C 1011.7 hPa South 3.2 km/h 9.7 km/h 79% 0 mm
17:49 24.1 °C 20 °C 1011.7 hPa South 3.2 km/h 9.7 km/h 78% 0 mm
17:54 24.2 °C 20.2 °C 1011.7 hPa SSW 4.8 km/h 11.3 km/h 78% 0 mm
17:59 24.4 °C 20.3 °C 1011.7 hPa SW 6.4 km/h 11.3 km/h 78% 0 mm
18:04 24.7 °C 20.4 °C 1011.4 hPa SW 6.4 km/h 12.9 km/h 77% 0 mm
18:09 24.8 °C 20.4 °C 1011.7 hPa SSW 6.4 km/h 12.9 km/h 77% 0 mm
18:14 24.7 °C 20.4 °C 1011.7 hPa SW 6.4 km/h 12.9 km/h 77% 0 mm
18:19 24.7 °C 20.4 °C 1011.7 hPa WSW 8 km/h 12.9 km/h 77% 0 mm
18:24 24.3 °C 20.4 °C 1011.7 hPa SW 6.4 km/h 16.1 km/h 79% 0 mm
18:29 24.3 °C 20.4 °C 1011.7 hPa SW 6.4 km/h 16.1 km/h 79% 0 mm
18:34 24.4 °C 20.6 °C 1011.7 hPa WSW 3.2 km/h 11.3 km/h 79% 0 mm
18:39 24.5 °C 20.6 °C 1011.7 hPa SSW 9.7 km/h 14.5 km/h 79% 0 mm
18:44 24.4 °C 20.5 °C 1011.7 hPa WSW 8 km/h 12.9 km/h 79% 0 mm
18:49 24.4 °C 20.5 °C 1011.7 hPa WNW 3.2 km/h 9.7 km/h 79% 0 mm
18:54 24.4 °C 20.5 °C 1011.7 hPa WSW 6.4 km/h 14.5 km/h 79% 0 mm
18:59 24.3 °C 20.6 °C 1011.7 hPa WSW 6.4 km/h 14.5 km/h 80% 0 mm
19:04 24.4 °C 20.7 °C 1011.7 hPa WSW 6.4 km/h 9.7 km/h 80% 0 mm
19:09 24.3 °C 20.6 °C 1011.7 hPa WSW 6.4 km/h 11.3 km/h 80% 0 mm
19:14 24.1 °C 20.4 °C 1011.7 hPa SW 4.8 km/h 16.1 km/h 80% 0 mm
19:19 24.1 °C 20.6 °C 1011.7 hPa WSW 4.8 km/h 11.3 km/h 81% 0 mm
19:24 24 °C 20.6 °C 1011.7 hPa West 4.8 km/h 14.5 km/h 81% 0 mm
19:29 23.9 °C 20.6 °C 1012.1 hPa WSW 8 km/h 14.5 km/h 82% 0 mm
19:34 23.8 °C 20.7 °C 1012.1 hPa SW 6.4 km/h 11.3 km/h 83% 0 mm
19:39 23.7 °C 20.6 °C 1012.1 hPa WSW 4.8 km/h 11.3 km/h 83% 0 mm
19:44 23.6 °C 20.6 °C 1011.7 hPa SW 9.7 km/h 12.9 km/h 83% 0 mm
19:49 23.5 °C 20.4 °C 1011.7 hPa WSW 8 km/h 12.9 km/h 83% 0 mm
19:54 23.5 °C 20.4 °C 1012.1 hPa WSW 8 km/h 11.3 km/h 83% 0 mm
19:59 23.4 °C 20.4 °C 1012.1 hPa WSW 4.8 km/h 11.3 km/h 83% 0 mm
20:04 23.4 °C 20.3 °C 1012.1 hPa WSW 6.4 km/h 11.3 km/h 83% 0 mm
20:09 23.3 °C 20.2 °C 1012.1 hPa SW 6.4 km/h 11.3 km/h 83% 0 mm
20:14 23.2 °C 20.3 °C 1012.1 hPa WSW 9.7 km/h 12.9 km/h 84% 0 mm
20:19 23.1 °C 20.3 °C 1012.1 hPa SW 8 km/h 11.3 km/h 84% 0 mm
20:24 23 °C 20.2 °C 1012.1 hPa SW 6.4 km/h 11.3 km/h 84% 0 mm
20:29 22.9 °C 20.3 °C 1012.1 hPa SW 4.8 km/h 11.3 km/h 85% 0 mm
20:34 22.8 °C 20.2 °C 1012.1 hPa SW 4.8 km/h 11.3 km/h 85% 0 mm
20:39 22.7 °C 20.3 °C 1012.1 hPa SW 4.8 km/h 9.7 km/h 86% 0 mm
20:44 22.6 °C 20.2 °C 1012.1 hPa WSW 3.2 km/h 8 km/h 86% 0 mm
20:49 22.5 °C 20.1 °C 1012.1 hPa SW 6.4 km/h 9.7 km/h 86% 0 mm
20:54 22.4 °C 20.2 °C 1012.1 hPa SW 3.2 km/h 9.7 km/h 87% 0 mm
20:59 22.4 °C 20.1 °C 1012.1 hPa SW 3.2 km/h 8 km/h 87% 0 mm
21:04 22.3 °C 20 °C 1012.1 hPa SW 3.2 km/h 6.4 km/h 87% 0 mm
21:09 22.2 °C 20.1 °C 1012.1 hPa WSW 3.2 km/h 6.4 km/h 88% 0 mm
21:14 22.2 °C 20.1 °C 1012.1 hPa SW 4.8 km/h 6.4 km/h 88% 0 mm
21:19 22.2 °C 20.1 °C 1012.1 hPa Calm   6.4 km/h 88% 0 mm
21:24 22.1 °C 20.2 °C 1012.1 hPa SW 4.8 km/h 8 km/h 89% 0 mm
21:29 22.1 °C 20.2 °C 1012.1 hPa SW 1.6 km/h 8 km/h 89% 0 mm
21:34 22.1 °C 20.2 °C 1012.1 hPa Calm   6.4 km/h 89% 0 mm
21:39 22 °C 20.1 °C 1012.4 hPa Calm   6.4 km/h 89% 0 mm
21:44 21.9 °C 20.1 °C 1012.4 hPa SW 1.6 km/h 6.4 km/h 89% 0 mm
21:49 21.9 °C 20.2 °C 1012.1 hPa SW 1.6 km/h 6.4 km/h 90% 0 mm
21:54 21.9 °C 20.2 °C 1012.1 hPa SW 1.6 km/h 6.4 km/h 90% 0 mm
21:59 21.8 °C 20.1 °C 1012.1 hPa Calm   3.2 km/h 90% 0 mm
22:04 21.8 °C 20.1 °C 1012.4 hPa Calm   3.2 km/h 90% 0 mm
22:09 21.9 °C 20.2 °C 1012.4 hPa SW 1.6 km/h 3.2 km/h 90% 0 mm
22:14 21.9 °C 20.4 °C 1012.4 hPa Calm   3.2 km/h 91% 0 mm
22:19 22 °C 20.4 °C 1012.4 hPa Calm   1.6 km/h 91% 0 mm
22:24 22 °C 20.4 °C 1012.4 hPa WSW 1.6 km/h 4.8 km/h 91% 0 mm
22:29 22.1 °C 20.5 °C 1012.4 hPa Calm   4.8 km/h 91% 0 mm
22:34 22.1 °C 20.5 °C 1012.4 hPa Calm     91% 0 mm
22:39 22.1 °C 20.6 °C 1012.4 hPa Calm   3.2 km/h 91% 0 mm
22:44 22.2 °C 20.6 °C 1012.4 hPa SW 1.6 km/h 6.4 km/h 91% 0 mm
22:49 22.2 °C 20.6 °C 1012.4 hPa Calm   6.4 km/h 91% 0 mm
22:54 22.2 °C 20.6 °C 1012.4 hPa Calm   6.4 km/h 91% 0 mm
22:59 22.1 °C 20.5 °C 1012.1 hPa Calm   1.6 km/h 91% 0 mm
23:04 22.1 °C 20.5 °C 1012.1 hPa Calm   3.2 km/h 91% 0 mm
23:09 22.1 °C 20.6 °C 1012.1 hPa Calm   3.2 km/h 91% 0 mm
23:14 22.1 °C 20.6 °C 1012.1 hPa Calm   3.2 km/h 91% 0 mm
23:19 22.1 °C 20.5 °C 1012.1 hPa Calm   1.6 km/h 91% 0 mm
23:24 22 °C 20.7 °C 1012.1 hPa Calm   6.4 km/h 92% 0 mm
23:29 22 °C 20.7 °C 1012.4 hPa Calm     92% 0 mm
23:34 21.9 °C 20.6 °C 1012.4 hPa Calm     92% 0 mm
23:39 21.9 °C 20.6 °C 1012.4 hPa Calm     92% 0 mm
23:44 22 °C 20.7 °C 1012.4 hPa Calm     92% 0 mm
23:49 22 °C 20.7 °C 1012.4 hPa Calm   4.8 km/h 92% 0 mm
23:54 22.1 °C 20.7 °C 1012.4 hPa Calm   4.8 km/h 92% 0 mm
23:59 22.2 °C 21 °C 1012.4 hPa Calm     93% 0 mm
Buffalo, New York, USA
Compliments of Weather Underground - 2.5 mb